UAE2PK EDDF-OMDB

Flight info

Callsign UAE2PK
Flight time N/A
Altitude 31000
Route SULUS4D SULUS Z650 VEMUT/N0483F370 DCT BUDEX DCT TEGRI DCT ARTAT/N0491F390 UP975 EZS UG8 OTKEP UM688 RATVO M688 SIDAD P975 SESRU M677 OBNET/N0496F350 M677 VUTEB
Aircraft A359/H-SDE2E3GHIJ3J4J5LM1ORWXY/LB1D1

Departure

Time 2026-04-19 06:34
Airport Frankfurt Main Airport (EDDF)

Arrival

Time N/A
Airport Dubai International Airport (OMDB)
Time Latitude Longitude Altitude Speed Heading
2026-04-19 06:16 50.04698 8.57093 375 ft 0 kts 115°
2026-04-19 06:17 50.04698 8.57092 375 ft 0 kts 115°
2026-04-19 06:23 50.04708 8.57061 369 ft 4 kts 115°
2026-04-19 06:24 50.04720 8.57024 370 ft 4 kts 127°
2026-04-19 06:24 50.04738 8.57000 370 ft 4 kts 178°
2026-04-19 06:24 50.04757 8.57008 368 ft 4 kts 204°
2026-04-19 06:24 50.04775 8.57021 368 ft 4 kts 204°
2026-04-19 06:25 50.04796 8.57036 370 ft 2 kts 205°
2026-04-19 06:25 50.04797 8.57037 370 ft 0 kts 205°
2026-04-19 06:27 50.04788 8.57031 372 ft 4 kts 204°
2026-04-19 06:28 50.04745 8.57002 368 ft 9 kts 204°
2026-04-19 06:28 50.04674 8.56950 373 ft 12 kts 205°
2026-04-19 06:28 50.04594 8.56906 373 ft 12 kts 193°
2026-04-19 06:28 50.04509 8.56874 370 ft 13 kts 192°
2026-04-19 06:29 50.04414 8.56842 370 ft 16 kts 191°
2026-04-19 06:29 50.04298 8.56811 373 ft 13 kts 182°
2026-04-19 06:29 50.04286 8.56819 371 ft 4 kts 149°
2026-04-19 06:29 50.04264 8.56908 374 ft 14 kts 94°
2026-04-19 06:30 50.04306 8.57102 374 ft 24 kts 64°
2026-04-19 06:30 50.04378 8.57341 374 ft 25 kts 67°
2026-04-19 06:30 50.04447 8.57600 372 ft 26 kts 70°
2026-04-19 06:30 50.04513 8.57874 375 ft 28 kts 71°
2026-04-19 06:31 50.04578 8.58161 374 ft 29 kts 70°
2026-04-19 06:31 50.04647 8.58454 374 ft 30 kts 70°
2026-04-19 06:31 50.04691 8.58707 371 ft 2 kts 103°
2026-04-19 06:31 50.04685 8.58717 373 ft 5 kts 130°
2026-04-19 06:32 50.04598 8.58722 371 ft 21 kts 204°
2026-04-19 06:32 50.04474 8.58536 379 ft 21 kts 246°
2026-04-19 06:32 50.04466 8.58508 377 ft 0 kts 246°
2026-04-19 06:32 50.04466 8.58507 377 ft 0 kts 246°
2026-04-19 06:33 50.04418 8.58323 373 ft 49 kts 249°
2026-04-19 06:33 50.04237 8.57539 375 ft 104 kts 249°
2026-04-19 06:33 50.03928 8.56242 366 ft 151 kts 250°
2026-04-19 06:33 50.03535 8.54663 845 ft 154 kts 252°
2026-04-19 06:34 50.03118 8.53098 1385 ft 159 kts 252°
2026-04-19 06:34 50.02587 8.51525 1754 ft 181 kts 240°
2026-04-19 06:34 50.01579 8.50043 1979 ft 214 kts 214°
2026-04-19 06:34 50.00146 8.49168 2347 ft 229 kts 197°
2026-04-19 06:35 49.98530 8.49258 2855 ft 240 kts 159°
2026-04-19 06:35 49.97243 8.50838 3525 ft 238 kts 123°
2026-04-19 06:35 49.96395 8.53034 4178 ft 238 kts 117°
2026-04-19 06:35 49.95606 8.55350 4548 ft 255 kts 117°
2026-04-19 06:36 49.94736 8.57865 4834 ft 274 kts 118°
2026-04-19 06:36 49.93807 8.60514 5278 ft 283 kts 119°
2026-04-19 06:36 49.92852 8.63203 5847 ft 287 kts 120°
2026-04-19 06:36 49.91876 8.65931 6428 ft 291 kts 120°
2026-04-19 06:37 49.90886 8.68689 7026 ft 294 kts 121°
2026-04-19 06:37 49.89886 8.71468 7595 ft 297 kts 121°
2026-04-19 06:37 49.88874 8.74277 8170 ft 300 kts 122°
2026-04-19 06:37 49.87864 8.77076 8728 ft 303 kts 122°
2026-04-19 06:38 49.86830 8.79937 9339 ft 306 kts 122°
2026-04-19 06:38 49.85785 8.82828 9930 ft 309 kts 123°
2026-04-19 06:38 49.84728 8.85746 10407 ft 316 kts 123°
2026-04-19 06:38 49.83624 8.88779 10656 ft 331 kts 123°
2026-04-19 06:39 49.82468 8.91952 10863 ft 346 kts 123°
2026-04-19 06:39 49.81262 8.95266 11086 ft 360 kts 123°
2026-04-19 06:39 49.80009 8.98707 11295 ft 373 kts 123°
2026-04-19 06:39 49.78713 9.02262 11516 ft 386 kts 123°
2026-04-19 06:40 49.77381 9.05919 11845 ft 393 kts 123°
2026-04-19 06:40 49.76181 9.09751 12274 ft 400 kts 112°
2026-04-19 06:40 49.75414 9.13852 12758 ft 404 kts 106°
2026-04-19 06:40 49.74747 9.18088 13188 ft 407 kts 105°
2026-04-19 06:41 49.74085 9.22356 13655 ft 410 kts 106°
2026-04-19 06:41 49.73399 9.26646 14080 ft 413 kts 106°
2026-04-19 06:41 49.72699 9.30960 14548 ft 415 kts 106°
2026-04-19 06:41 49.71994 9.35292 14959 ft 417 kts 106°
2026-04-19 06:42 49.71284 9.39648 15364 ft 420 kts 107°
2026-04-19 06:42 49.70569 9.44037 15772 ft 422 kts 106°
2026-04-19 06:42 49.69893 9.48395 16179 ft 425 kts 105°
2026-04-19 06:42 49.69269 9.52862 16641 ft 426 kts 104°
2026-04-19 06:43 49.68682 9.57357 17057 ft 428 kts 103°
2026-04-19 06:43 49.68106 9.61872 17455 ft 431 kts 103°
2026-04-19 06:43 49.67522 9.66424 17856 ft 433 kts 103°
2026-04-19 06:43 49.66928 9.70995 18255 ft 435 kts 103°
2026-04-19 06:44 49.66322 9.75582 18604 ft 438 kts 104°
2026-04-19 06:44 49.65706 9.80190 18944 ft 439 kts 104°
2026-04-19 06:44 49.65082 9.84818 19284 ft 441 kts 104°
2026-04-19 06:44 49.64462 9.89399 19627 ft 443 kts 104°
2026-04-19 06:45 49.63827 9.94064 19947 ft 445 kts 104°
2026-04-19 06:45 49.63188 9.98751 20295 ft 448 kts 104°
2026-04-19 06:45 49.62545 10.03456 20645 ft 450 kts 104°
2026-04-19 06:45 49.61897 10.08183 20960 ft 452 kts 104°
2026-04-19 06:46 49.61244 10.12932 21279 ft 454 kts 104°
2026-04-19 06:46 49.60586 10.17694 21597 ft 456 kts 104°
2026-04-19 06:46 49.59921 10.22494 21914 ft 458 kts 104°
2026-04-19 06:46 49.59263 10.27233 22226 ft 460 kts 104°
2026-04-19 06:47 49.58590 10.32064 22537 ft 462 kts 104°
2026-04-19 06:47 49.57912 10.36914 22860 ft 464 kts 104°
2026-04-19 06:47 49.57226 10.41802 22979 ft 471 kts 104°
2026-04-19 06:47 49.56528 10.46753 23227 ft 474 kts 104°
2026-04-19 06:48 49.55827 10.51720 23568 ft 475 kts 104°
2026-04-19 06:48 49.55123 10.56695 23849 ft 477 kts 104°
2026-04-19 06:48 49.54413 10.61696 24115 ft 479 kts 105°
2026-04-19 06:48 49.53707 10.66650 24375 ft 481 kts 105°
2026-04-19 06:49 49.53073 10.71086 24605 ft 482 kts 105°
2026-04-19 06:50 49.52471 10.75281 24827 ft 484 kts 105°
2026-04-19 06:50 49.52300 10.76468 24887 ft 484 kts 105°
2026-04-19 06:50 49.51574 10.81512 25148 ft 486 kts 105°
2026-04-19 06:50 49.50841 10.86594 25436 ft 487 kts 105°
2026-04-19 06:51 49.50113 10.91616 25699 ft 489 kts 105°
2026-04-19 06:51 49.49367 10.96747 25967 ft 491 kts 105°
2026-04-19 06:51 49.48618 11.01877 26239 ft 493 kts 105°
2026-04-19 06:51 49.47862 11.07036 26515 ft 495 kts 105°
2026-04-19 06:52 49.47102 11.12210 26785 ft 497 kts 105°
2026-04-19 06:52 49.46335 11.17410 27068 ft 499 kts 105°
2026-04-19 06:52 49.45564 11.22622 27372 ft 501 kts 106°
2026-04-19 06:52 49.44790 11.27842 27717 ft 500 kts 105°
2026-04-19 06:53 49.44013 11.33063 28095 ft 502 kts 105°
2026-04-19 06:53 49.43242 11.38226 28379 ft 505 kts 105°
2026-04-19 06:53 49.42453 11.43487 28614 ft 507 kts 105°
2026-04-19 06:53 49.41657 11.48782 28921 ft 509 kts 106°
2026-04-19 06:54 49.40856 11.54086 29230 ft 511 kts 106°
2026-04-19 06:54 49.40051 11.59409 29511 ft 513 kts 106°
2026-04-19 06:54 49.39240 11.64748 29781 ft 515 kts 106°
2026-04-19 06:54 49.38423 11.70110 30073 ft 516 kts 105°
2026-04-19 06:55 49.37601 11.75483 30328 ft 517 kts 105°
2026-04-19 06:55 49.36787 11.80788 30551 ft 519 kts 105°
2026-04-19 06:55 49.35956 11.86187 30785 ft 521 kts 105°
2026-04-19 06:55 49.35122 11.91587 31132 ft 519 kts 106°
2026-04-19 06:56 49.34289 11.96972 31482 ft 518 kts 106°
2026-04-19 06:56 49.33454 12.02342 31799 ft 518 kts 106°
2026-04-19 06:56 49.32617 12.07712 32124 ft 517 kts 106°
2026-04-19 06:56 49.31779 12.13062 32445 ft 516 kts 106°
2026-04-19 06:57 49.30941 12.18400 32855 ft 514 kts 106°
2026-04-19 06:57 49.30115 12.23642 33167 ft 513 kts 106°
2026-04-19 06:57 49.29277 12.28947 33471 ft 512 kts 106°
2026-04-19 06:57 49.28437 12.34246 33782 ft 512 kts 106°
2026-04-19 06:58 49.27595 12.39538 34093 ft 511 kts 106°
2026-04-19 06:58 49.26752 12.44820 34373 ft 511 kts 106°
2026-04-19 06:58 49.25907 12.50097 34586 ft 510 kts 106°
2026-04-19 06:58 49.25059 12.55374 34816 ft 510 kts 106°
2026-04-19 06:59 49.24209 12.60643 35076 ft 509 kts 105°
2026-04-19 06:59 49.23371 12.65831 35296 ft 509 kts 105°
2026-04-19 06:59 49.22518 12.71092 35526 ft 510 kts 105°
2026-04-19 06:59 49.21663 12.76351 35736 ft 510 kts 105°
2026-04-19 07:00 49.20803 12.81618 35926 ft 510 kts 105°
2026-04-19 07:00 49.19941 12.86887 36115 ft 511 kts 106°
2026-04-19 07:00 49.19076 12.92155 36307 ft 511 kts 105°
2026-04-19 07:00 49.18207 12.97428 36482 ft 511 kts 105°
2026-04-19 07:01 49.17338 13.02689 36661 ft 511 kts 105°
2026-04-19 07:01 49.16466 13.07954 36862 ft 511 kts 105°
2026-04-19 07:01 49.15602 13.13152 37002 ft 512 kts 105°
2026-04-19 07:01 49.14720 13.18438 37030 ft 516 kts 106°
2026-04-19 07:02 49.12937 13.29082 37032 ft 517 kts 106°
2026-04-19 07:02 49.11146 13.39709 37033 ft 517 kts 106°
2026-04-19 07:03 49.09345 13.50329 37028 ft 517 kts 106°
2026-04-19 07:03 49.07534 13.60940 37028 ft 517 kts 106°
2026-04-19 07:04 49.05727 13.71468 37029 ft 517 kts 106°
2026-04-19 07:04 49.03896 13.82069 37028 ft 517 kts 106°
2026-04-19 07:05 49.02056 13.92656 37031 ft 517 kts 106°
2026-04-19 07:05 49.00205 14.03246 37034 ft 517 kts 107°
2026-04-19 07:06 48.98357 14.13753 37032 ft 517 kts 107°
2026-04-19 07:06 48.96486 14.24329 37030 ft 517 kts 107°
2026-04-19 07:07 48.94295 14.34714 37032 ft 514 kts 117°
2026-04-19 07:07 48.91112 14.44441 37035 ft 513 kts 120°
2026-04-19 07:08 48.87770 14.53945 37034 ft 513 kts 121°
2026-04-19 07:08 48.84380 14.63479 37035 ft 513 kts 121°
2026-04-19 07:09 48.80998 14.73015 37034 ft 513 kts 120°
2026-04-19 07:09 48.77612 14.82564 37037 ft 513 kts 120°
2026-04-19 07:10 48.74250 14.92023 37037 ft 513 kts 120°
2026-04-19 07:10 48.70855 15.01535 37036 ft 513 kts 120°
2026-04-19 07:11 48.67453 15.11031 37037 ft 513 kts 121°
2026-04-19 07:11 48.64042 15.20517 37037 ft 513 kts 121°
2026-04-19 07:12 48.60622 15.29991 37039 ft 513 kts 121°
2026-04-19 07:12 48.57220 15.39386 37035 ft 513 kts 121°
2026-04-19 07:13 48.53790 15.48823 37039 ft 513 kts 121°
2026-04-19 07:13 48.50351 15.58251 37045 ft 513 kts 121°
2026-04-19 07:14 48.46906 15.67659 37044 ft 513 kts 121°
2026-04-19 07:14 48.43478 15.76988 37032 ft 512 kts 121°
2026-04-19 07:15 48.40023 15.86358 37052 ft 512 kts 121°
2026-04-19 07:16 48.34829 16.00382 37051 ft 511 kts 121°
2026-04-19 07:16 48.31381 16.09652 37050 ft 511 kts 121°
2026-04-19 07:17 48.27903 16.18966 37052 ft 512 kts 121°
2026-04-19 07:17 48.24416 16.28276 37061 ft 512 kts 121°
2026-04-19 07:18 48.20919 16.37576 37068 ft 512 kts 121°
2026-04-19 07:18 48.17419 16.46854 37075 ft 512 kts 121°
2026-04-19 07:19 48.14279 16.55149 37073 ft 511 kts 121°